Other Public Products
Issued by NWS Grand Forks, ND

Home | Current Version | Previous Version | Graphics & Text | Print | Product List | Glossary On
Versions: 1 2 3 4 5 6 7 8 9 10 11 12 13 14 15 16 17 18 19 20 21 22 23 24 25 26 27 28 29 30 31 32 33 34 35 36 37 38 39 40 41 42 43 44 45 46 47 48 49 50
000
FPUS83 KFGF 240331
OPUFGF
PRAIRIE TO PINES WEATHER ROUNDUP
NATIONAL WEATHER SERVICE EASTERN NORTH DAKOTA/GRAND FORKS ND
1000 PM CDT WED MAY 23 2018

 **SATELLITE DATA USED TO AUGMENT SKY COVER AT AUTOMATED STATIONS**
 *****  WEATHER ACROSS EASTERN NORTH DAKOTA  *****

CITY           SKY/WX    TMP DP  RH WIND       PRES   REMARKS
GRAND FORKS    MOCLDY    74  62  66 S10       29.93R
GRND FORKS AFB MOCLDY    74  60  62 S12       29.93R
GRND FORKS NWS   N/A     75  61  62 SE9       29.90S
BUXTON           N/A     73  64  72 SE8         N/A
DEVILS LAKE    FAIR      69  61  75 SE13      29.91R
FARGO          FAIR      74  60  61 SE13G23   29.93S
WAHPETON ARPT  FAIR      70  59  68 SE12G22   29.95S
$$

 *****  WEATHER ACROSS CENTRAL AND WESTERN NORTH DAKOTA  *****

CITY           SKY/WX    TMP DP  RH WIND       PRES   REMARKS
JAMESTOWN      FAIR      71  64  78 SE20G28   29.89S
BISMARCK       FAIR      70  65  84 S5        29.83R
MINOT          FAIR      75  64  68 E9        29.81R
MINOT AFB      FAIR      74  63  69 SE9       29.80R
GARRISON         N/A     68  62  81 SE5       29.80S
WILLISTON      FAIR      64  58  80 N3        29.79F
DICKINSON      FAIR      67  59  75 S9        29.82R
HETTINGER      FAIR      68  62  81 SE10      29.86S
$$

 *****  OTHER OBSERVATIONS NORTHEAST NORTH DAKOTA  *****

CITY           SKY/WX    TMP DP  RH WIND       PRES   REMARKS
WALHALLA       FAIR      73  61  64 SE9       29.91R
LANGDON        FAIR      70  59  68 SE9       29.94R
CAVALIER         N/A     75  59  57 SE7       29.91S
GRAFTON        FAIR      72  59  64 SE8       29.94R
CANDO          FAIR      70  61  73 SE14      29.92R
FORT TOTTEN      N/A     70  63  78 SE7       29.95S
ROLLA          FAIR      70  59  68 SE14      29.90R
RUGBY          NOT AVBL
 ***** THE ABOVE OBSERVATIONS ARE NON NWS ARE NOT QUALITY
        CONTROLLED AND MAY MIS-REPORT RAIN FOR SNOW...
$$

 *****  OTHER OBSERVATIONS SOUTHEAST NORTH DAKOTA *****

CITY           SKY/WX    TMP DP  RH WIND       PRES   REMARKS
COOPERSTOWN    FAIR      72  63  73 SE13      29.93R
VALLEY CITY    FAIR      72  72 100 SE15G23   29.94S
OAKES            N/A     70  68  94 SE15      29.91R
GWINNER          N/A     70  64  83 SE24      29.91S
SHEYENNE NWR     N/A     70  63  79 SE12      29.95S
BUFFALO          N/A     71  59  64 W16         N/A
WYNDMERE       NOT AVBL
 ***** THE ABOVE OBSERVATIONS ARE NON NWS ARE NOT QUALITY
       CONTROLLED AND MAY MIS-REPORT RAIN FOR SNOW...
$$

  *****  WEATHER ACROSS NORTHERN MINNESOTA  *****

CITY           SKY/WX    TMP DP  RH WIND       PRES   REMARKS
FLAG ISLAND    FAIR      73  55  53 SE3       29.98R
WARROAD        FAIR      70  61  73 S6        29.99S
ROSEAU         FAIR      72  61  68 SE7       29.98R
HALLOCK        FAIR      73  57  56 SE9       29.93S
THF RVR FALLS  FAIR      72  59  63 SE9       29.98R
HALSTAD          N/A     71  59  66 SE10        N/A
FOSSTON        FAIR      72  57  60 SE8G16    30.00R
BAUDETTE       FAIR      67  59  75 SE3       30.00R
WASKISH          N/A     70  61  73 SE3       30.02R
CROOKSTON      FAIR      73  59  60 SE10      29.96R
$$
  *****  WEATHER ACROSS CENTRAL AND WEST MINNESOTA  *****

CITY           SKY/WX    TMP DP  RH WIND       PRES   REMARKS
BEMIDJI        FAIR      67  59  75 SE7       30.03R
PARK RAPIDS    FAIR      70  59  68 SE8       30.03S
WADENA         LGT RAIN  66  61  82 E8        30.03S
DETROIT LAKES  FAIR      70  59  68 SE13      30.01F
MOORHEAD       FAIR      72  59  64 SE9       29.94F
FERGUS FALLS   FAIR      72  63  73 SE16      29.94R
ELBOW LAKE     LGT RAIN  68  62  79 SE12      29.99F
MORRIS MN      MOCLDY    70  64  83 E13       29.98S
STAPLES        FAIR      66  59  77 E3        30.04S
WHEATON        FAIR      70  63  78 SE13      29.97F
$$
  *****  WEATHER ELSEWHERE ACROSS MINNESOTA  *****

CITY           SKY/WX    TMP DP  RH WIND       PRES   REMARKS
DULUTH         FAIR      66  53  63 E6        30.10R
INTRNTL FALLS  FAIR      61  57  87 CALM      30.02R
ELY            FAIR      70  54  56 S6        30.08R
CLOQUET        FAIR      63  52  67 CALM      30.10S
BRAINERD       CLOUDY    70  58  65 S5        30.06S
HIBBING        MOCLDY    70  58  65 S6        30.08R
ALEXANDRIA     LGT RAIN  70  61  73 E13       30.03R
SAINT CLOUD    FAIR      70  59  68 E6        30.04R
MINNEAPOLIS    FAIR      77  65  66 SE10      30.06R
$$

  *****  WEATHER ACROSS SOUTH DAKOTA  *****

CITY           SKY/WX    TMP DP  RH WIND       PRES   REMARKS
SIOUX FALLS    MOCLDY    80  61  52 S15G23    29.95R
BROOKINGS      FAIR      74  63  68 SE9       29.96R
WATERTOWN      FAIR      73  69  87 E6        29.95R
HURON          FAIR      75  62  64 SE9       29.88R
SISSETON         N/A     70  65  84 SE13      29.94S
ABERDEEN       FAIR      74  62  66 SE8       29.88R
MITCHELL       FAIR      76  62  62 S9        29.90R
PIERRE         FAIR      72  64  76 SE8       29.82R
MOBRIDGE       FAIR      72  64  76 E8        29.82R
RAPID CITY     FAIR      69  46  43 SW15G24   29.90R
$$

  *****  SOME WEATHER IN NEARBY STATES *****

CITY           SKY/WX    TMP DP  RH WIND       PRES   REMARKS
GLASGOW MT     FAIR      65  57  75 NE6       29.78F
GREAT FALLS MT FAIR      61  51  70 S3        29.86R
CHEYENNE WY    FAIR      61  45  55 NW5       30.03R
SCOTTSBLUFF NE FAIR      63  49  60 NE14      29.94S
OMAHA NE       FAIR      81  61  50 SE10      30.00R
DES MOINES IA  FAIR      79  64  60 SE12      30.07R
DAVENPORT IA   FAIR      72  58  61 E9        30.16R
CHICAGO IL     FAIR      64  50  60 E5        30.18R
EAU CLAIRE WI  FAIR      72  62  71 S6        30.11R
LA CROSSE WI   FAIR      72  63  73 SE3       30.11R
$$

  *****  SOME NATIONAL WEATHER *****

CITY           SKY/WX    TMP DP  RH WIND       PRES   REMARKS
LA GUARDIA NY  FAIR      76  49  38 W13       29.99R
RALEIGH NC     FAIR      73  69  87 CALM      30.06R
ATLANTA GA     MOCLDY    74  69  85 SE3       30.09R
NEW ORLEANS LA FAIR      82  73  74 SE8       30.06R
OKLAHOMA CITY  FAIR      76  67  73 SE8       30.05R
ALBUQUERQUE NM FAIR      76  16  10 SE9       30.02R
SALT LAKE CITY FAIR      67  50  54 E5        29.97R
LOS ANGELES CA FAIR      61  53  75 W13       29.97R
BOISE ID       MOCLDY    66  59  78 E6        29.85F
SEATTLE WA     FAIR      72  51  47 W9        29.80R
$$

*** WEATHER ACROSS MANITOBA...SASKATCHEWAN AND ONTARIO ***
                ***ONTARIO***

CITY           SKY/WX    TMP DP  RH WIND       PRES   REMARKS
GERALDTON      MOCLDY    64  41  42 W6        30.05S
THUNDER BAY    CLEAR     48  41  76 E8        30.09R
SIOUX LOOKOUT  MOCLDY    59  45  58 SE2       30.03R
TORONTO        CLEAR     66  43  42 NW8       30.13R
BIG TROUT LK   CLEAR     50  39  66 SW3       29.91F
PICKLE LAKE    NOT AVBL
DRYDEN         CLEAR     73  48  40 S6        30.02S
KENORA         PTCLDY    73  52  46 E3        30.01R
$$
                *** MANITOBA***

CITY           SKY/WX    TMP DP  RH WIND       PRES   REMARKS
BRANDON        MOCLDY    70  59  68 E7        29.87S
DAUPHIN        CLOUDY    70  61  73 SE3       29.87F
ISLAND LAKE    CLEAR     70  43  37 SE5       29.90S
PILOT MOUND      N/A     73  57  56 SE14        N/A
THE PAS        CLEAR     72  52  49 SE7       29.85S
THOMPSON       PTCLDY    72  41  33 CALM      29.83R
WINNIPEG       PTCLDY    75  54  46 SE9       29.92R
LYNN LAKE      CLEAR     77  43  29 SW7       29.79R
CHURCHILL      MOCLDY    45  37  76 E5        29.75R
GILLAM         PTCLDY    73  43  33 SW8       29.79S
$$
                ***SASKATCHEWAN***

CITY           SKY/WX    TMP DP  RH WIND       PRES   REMARKS
ESTEVAN        MOCLDY    64  59  82 NE9       29.84R
KINDERSLEY     MOCLDY    73  52  46 S18G24    29.79R
LLOYDMINSTER   PTCLDY    73  37  27 SE10      29.79F
PRINCE ALBERT  MOCLDY    73  48  40 NE2       29.82S
REGINA         CLOUDY    64  63  94 N6        29.86S
YORKTON        CLOUDY    66  61  82 SE5       29.88S



USA.gov is the U.S. government's official web portal to all federal, state and local government web resources and services.